"startDT [UTC]","vpos","CH4 [ppm]","stdev(CH4) [ppm]","CO2 [ppm]","stdev(CO2) [ppm]","H2O [ppm]","stdev(H2O)","p_LGR [torr]","T_LGR [C]","mt1_LGR [us]","mt2_LGR [us]","T_ECpre [C]","T_EC1 [C]","T_EC2 [C]","p_inlet [hPa]","p_in [hPa]","p_out [hPa]","T_inlet [C]","RH_inlet [%]","dwpt_inlet [C]","T_vent [C]","RH_vent [%]","dwpt_vent [C]","flow_vent [l min-1]","flow_inlet [l min-1]","dwpt_sample [C]","T_room [C]"
2012-04-07 00:00:00,0.0,1.9054,0.0011,402.09,0.24,51.9,37.0,138.13,28.27,24.61,36.32,0.04,-272.74,-272.74,-51,554,-926,22.7,3.3,-23.7,22.7,3.4,-23.3,5.73,2.44,-27.6,25.9
2012-04-07 00:01:00,0.0,1.9053,0.0009,402.00,0.22,40.5,36.7,138.13,28.25,24.61,36.32,0.04,-272.74,-272.74,-51,553,-926,22.6,3.2,-23.9,22.7,3.3,-23.5,5.73,2.44,-27.7,25.7
2012-04-07 00:02:00,0.0,1.9051,0.0011,401.87,0.24,23.0,27.1,138.14,28.23,24.61,36.32,0.04,-272.74,-272.74,-51,553,-926,22.6,3.1,-24.2,22.6,3.3,-23.8,5.73,2.39,-27.9,25.6
2012-04-07 00:03:00,0.0,1.9044,0.0008,401.85,0.25,18.7,24.0,138.14,28.21,24.61,36.32,0.04,-272.74,-272.74,-51,553,-926,22.5,3.1,-24.4,22.5,3.2,-24.1,5.73,2.35,-28.0,25.5
2012-04-07 00:04:00,0.0,1.9035,0.0011,401.96,0.20,7.5,13.3,138.15,28.18,24.61,36.31,0.04,-272.74,-272.74,-51,552,-926,22.5,3.0,-24.7,22.5,3.1,-24.3,5.73,2.33,-28.1,25.3
2012-04-07 00:05:00,0.0,1.9034,0.0011,401.91,0.22,9.3,18.1,138.15,28.15,24.61,36.31,0.04,-272.74,-272.74,-52,552,-926,22.4,3.0,-24.8,22.4,3.1,-24.4,5.73,2.31,-28.2,25.7
2012-04-07 00:06:00,0.0,1.9032,0.0011,401.91,0.20,8.5,16.6,138.15,28.13,24.61,36.31,0.04,-272.74,-272.74,-51,552,-926,22.4,3.0,-24.9,22.4,3.1,-24.5,5.73,2.48,-28.2,26.1
2012-04-07 00:07:00,0.0,1.9038,0.0010,401.99,0.18,5.5,13.8,138.15,28.11,24.61,36.31,0.04,-272.74,-272.74,-51,552,-925,22.4,3.0,-24.8,22.4,3.1,-24.5,5.73,2.30,-28.2,26.4
2012-04-07 00:08:00,0.0,1.9044,0.0011,401.87,0.25,8.5,17.1,138.14,28.10,24.61,36.31,0.04,-272.74,-272.74,-51,552,-925,22.4,3.0,-24.8,22.4,3.1,-24.5,5.73,2.46,-28.1,26.7
2012-04-07 00:09:00,0.0,1.9043,0.0010,401.76,0.22,15.1,23.7,138.14,28.09,24.61,36.31,0.04,-272.74,-272.74,-50,552,-925,22.4,3.0,-24.9,22.4,3.1,-24.5,5.73,2.27,-28.0,26.8
2012-04-07 00:10:00,0.0,1.9034,0.0010,401.65,0.25,18.4,23.4,138.13,28.08,24.61,36.31,0.04,-272.74,-272.74,-51,551,-923,22.3,3.0,-25.0,22.5,3.1,-24.6,5.73,2.45,-27.9,27.0
2012-04-07 00:11:00,0.0,1.9030,0.0011,401.74,0.27,15.9,19.2,138.13,28.08,24.61,36.31,0.04,-272.74,-272.74,-51,551,-925,22.4,3.0,-25.1,22.5,3.0,-24.7,5.73,2.36,-27.8,27.1
2012-04-07 00:12:00,0.0,1.9036,0.0011,401.49,0.22,31.7,34.5,138.13,28.08,24.61,36.32,0.04,-272.74,-272.74,-51,551,-925,22.3,2.9,-25.1,22.5,3.0,-24.7,5.73,2.30,-27.7,27.1
2012-04-07 00:13:00,0.0,1.9032,0.0011,401.65,0.23,28.8,32.1,138.13,28.08,24.61,36.31,0.04,-272.74,-272.73,-51,551,-925,22.4,3.0,-25.1,22.5,3.0,-24.6,5.73,2.46,-27.6,27.2
2012-04-07 00:14:00,0.0,1.9032,0.0010,401.70,0.21,32.7,32.8,138.13,28.09,24.61,36.32,0.04,-272.74,-272.74,-50,551,-925,22.4,3.0,-25.0,22.5,3.1,-24.6,5.73,2.35,-27.6,27.3
2012-04-07 00:15:00,0.0,1.9033,0.0011,401.67,0.19,49.5,36.9,138.12,28.09,24.61,36.32,0.04,-272.74,-272.74,-51,551,-925,22.4,3.0,-24.9,22.5,3.1,-24.4,5.73,2.31,-27.5,27.3
2012-04-07 00:16:00,0.0,1.9029,0.0010,401.71,0.18,51.9,39.1,138.12,28.10,24.61,36.32,0.04,-272.73,-272.73,-51,551,-925,22.4,3.0,-24.8,22.6,3.1,-24.4,5.73,2.46,-27.5,27.4
2012-04-07 00:17:00,0.0,1.9025,0.0009,401.75,0.22,44.3,36.1,138.12,28.11,24.61,36.31,0.04,-272.74,-272.74,-50,552,-925,22.4,3.1,-24.6,22.6,3.2,-24.2,5.73,2.35,-27.4,27.4
2012-04-07 00:18:00,0.0,1.9024,0.0011,401.62,0.22,53.9,35.9,138.12,28.12,24.61,36.32,0.04,-272.74,-272.74,-51,551,-925,22.4,3.1,-24.4,22.6,3.2,-24.0,5.73,2.31,-27.3,27.4
2012-04-07 00:19:00,0.0,1.9029,0.0011,401.73,0.24,61.0,40.7,138.12,28.12,24.61,36.32,0.04,-272.73,-272.74,-50,551,-925,22.4,3.2,-24.3,22.6,3.3,-23.8,5.73,2.46,-27.3,27.4
2012-04-07 00:20:00,0.0,1.9034,0.0011,401.78,0.19,68.2,38.1,138.12,28.13,24.61,36.32,0.04,-272.74,-272.74,-51,552,-925,22.5,3.2,-24.1,22.6,3.3,-23.6,5.73,2.36,-27.2,27.4
2012-04-07 00:21:00,0.0,1.9038,0.0010,401.79,0.22,69.3,44.1,138.12,28.14,24.61,36.32,0.04,-272.74,-272.74,-51,551,-925,22.5,3.3,-23.9,22.7,3.4,-23.4,5.73,2.30,-27.2,27.5
2012-04-07 00:22:00,0.0,1.9036,0.0010,402.33,0.34,81.5,39.5,138.11,28.15,24.61,36.32,0.04,-272.73,-272.74,-50,552,-925,22.5,3.3,-23.6,22.7,3.4,-23.3,5.73,2.45,-27.1,27.6
2012-04-07 00:23:00,0.0,1.9036,0.0011,402.46,0.27,76.4,38.7,138.11,28.17,24.61,36.32,0.04,-272.74,-272.74,-51,552,-924,22.5,3.4,-23.4,22.7,3.5,-23.0,5.73,2.38,-27.0,27.6
2012-04-07 00:24:00,0.0,1.9045,0.0010,402.11,0.21,74.8,42.6,138.11,28.18,24.61,36.32,0.04,-272.74,-272.74,-50,552,-925,22.6,3.6,-22.8,22.7,3.6,-22.5,5.73,2.29,-27.0,27.5
2012-04-07 00:25:00,0.0,1.9042,0.0011,402.27,0.23,88.3,40.1,138.11,28.19,24.61,36.31,0.04,-272.74,-272.74,-50,552,-925,22.6,3.6,-22.7,22.7,3.7,-22.3,5.73,2.43,-26.9,27.6
2012-04-07 00:26:00,0.0,1.9046,0.0009,403.07,0.56,80.3,40.0,138.11,28.20,24.61,36.32,0.04,-272.74,-272.73,-51,552,-925,22.6,3.6,-22.9,22.8,3.7,-22.4,5.73,2.39,-26.9,27.7
2012-04-07 00:27:00,0.0,1.9052,0.0012,402.25,0.29,95.0,44.8,138.11,28.21,24.61,36.32,0.04,-272.73,-272.73,-50,552,-925,22.6,3.6,-22.8,22.8,3.6,-22.4,5.73,2.29,-26.8,27.7
2012-04-07 00:28:00,0.0,1.9056,0.0011,401.91,0.22,104.2,38.8,138.11,28.22,24.61,36.33,0.04,-272.74,-272.74,-51,552,-925,22.7,3.7,-22.3,22.8,3.8,-21.9,5.73,2.41,-26.8,27.8
2012-04-07 00:29:00,0.0,1.9058,0.0011,402.24,0.23,102.4,34.7,138.11,28.23,24.61,36.33,0.04,-272.73,-272.74,-51,552,-925,22.7,3.6,-22.6,22.8,3.7,-22.1,5.73,2.42,-26.8,27.8
2012-04-07 00:30:00,0.0,1.9058,0.0010,402.05,0.23,98.8,30.5,138.11,28.24,24.61,36.32,0.04,-272.74,-272.74,-50,553,-925,22.7,3.6,-22.6,22.8,3.7,-22.2,5.73,2.29,-26.7,27.8
2012-04-07 00:31:00,0.0,1.9054,0.0010,402.24,0.20,101.4,38.9,138.11,28.25,24.61,36.33,0.04,-272.74,-272.74,-51,553,-925,22.7,3.6,-22.5,22.9,3.7,-22.1,5.73,2.37,-26.7,27.8
2012-04-07 00:32:00,0.0,1.9057,0.0010,402.09,0.23,112.8,42.6,138.10,28.26,24.61,36.33,0.04,-272.74,-272.74,-51,553,-925,22.7,3.7,-22.4,22.9,3.8,-22.0,5.73,2.44,-26.6,27.9
2012-04-07 00:33:00,0.0,1.9071,0.0011,403.08,0.29,114.8,42.1,138.10,28.27,24.61,36.32,0.04,-272.73,-272.74,-50,553,-925,22.8,3.7,-22.3,22.9,3.8,-21.9,5.73,2.31,-26.6,28.0
2012-04-07 00:34:00,0.0,1.9070,0.0011,403.26,0.28,112.9,41.9,138.10,28.28,24.62,36.33,0.04,-272.74,-272.74,-51,553,-925,22.8,3.7,-22.3,22.9,3.8,-21.8,5.73,2.35,-26.5,27.9
2012-04-07 00:35:00,0.0,1.9069,0.0012,403.17,0.23,122.9,45.6,138.11,28.29,24.62,36.33,0.04,-272.74,-272.74,-50,554,-925,22.8,3.7,-22.3,23.0,3.8,-21.8,5.73,2.44,-26.6,27.3
2012-04-07 00:36:00,0.0,1.9062,0.0011,402.76,0.25,111.3,37.5,138.11,28.29,24.61,36.33,0.04,-272.73,-272.74,-51,554,-926,22.8,3.7,-22.2,22.9,3.8,-21.7,5.73,2.37,-26.7,26.9
2012-04-07 00:37:00,0.0,1.9060,0.0010,402.68,0.20,86.6,37.8,138.12,28.29,24.61,36.33,0.04,-272.73,-272.74,-51,554,-926,22.8,3.8,-21.9,22.9,3.9,-21.6,5.73,2.29,-26.8,26.5
2012-04-07 00:38:00,0.0,1.9050,0.0010,402.75,0.25,76.0,40.2,138.12,28.28,24.62,36.32,0.04,-272.74,-272.73,-51,554,-926,22.7,3.8,-21.9,22.8,3.9,-21.6,5.73,2.39,-27.0,26.3
2012-04-07 00:39:00,0.0,1.9043,0.0011,402.34,0.23,65.8,38.1,138.13,28.27,24.61,36.32,0.04,-272.73,-272.74,-51,554,-926,22.7,3.8,-22.0,22.8,3.9,-21.7,5.73,2.46,-27.2,25.9
2012-04-07 00:40:00,0.0,1.9048,0.0009,402.68,0.23,47.2,33.5,138.13,28.26,24.61,36.32,0.04,-272.74,-272.73,-51,554,-926,22.7,3.8,-22.0,22.7,3.9,-21.7,5.73,2.42,-27.3,25.7
2012-04-07 00:41:00,0.0,1.9043,0.0011,402.51,0.24,29.4,31.2,138.14,28.24,24.61,36.32,0.04,-272.74,-272.73,-51,553,-926,22.6,3.8,-22.2,22.6,3.9,-21.9,5.73,2.36,-27.5,25.5
2012-04-07 00:42:00,0.0,1.9039,0.0012,402.43,0.28,26.4,31.9,138.14,28.21,24.62,36.32,0.04,-272.74,-272.74,-51,553,-926,22.6,3.7,-22.3,22.6,3.9,-21.9,5.73,2.32,-27.6,25.3
2012-04-07 00:43:00,0.0,1.9048,0.0011,402.99,0.25,20.3,29.8,138.15,28.19,24.61,36.31,0.04,-272.74,-272.73,-51,553,-926,22.5,3.8,-22.3,22.5,3.9,-22.0,5.73,2.32,-27.7,25.3
2012-04-07 00:44:00,0.0,1.9044,0.0010,403.34,0.22,20.3,26.1,138.15,28.17,24.61,36.31,0.04,-272.73,-272.74,-52,552,-926,22.5,3.8,-22.2,22.4,3.9,-21.9,5.73,2.39,-27.8,25.8
2012-04-07 00:45:00,0.0,1.9043,0.0009,403.32,0.24,19.2,26.0,138.15,28.15,24.61,36.31,0.04,-272.74,-272.74,-52,552,-926,22.5,3.8,-22.2,22.4,3.9,-21.9,5.73,2.46,-27.7,26.2
2012-04-07 00:46:00,0.0,1.9046,0.0009,402.96,0.25,21.6,28.7,138.14,28.13,24.61,36.31,0.04,-272.74,-272.74,-51,552,-926,22.5,3.8,-22.3,22.5,3.9,-22.0,5.73,2.28,-27.7,26.5
2012-04-07 00:47:00,0.0,1.9042,0.0009,403.10,0.27,25.7,27.3,138.14,28.12,24.61,36.31,0.04,-272.74,-272.73,-52,552,-926,22.5,3.8,-22.3,22.5,3.9,-21.9,5.73,2.44,-27.6,26.7
2012-04-07 00:48:00,0.0,1.9041,0.0010,403.01,0.23,27.9,29.7,138.14,28.11,24.61,36.31,0.04,-272.74,-272.74,-51,552,-925,22.5,3.8,-22.2,22.5,3.9,-21.8,5.73,2.37,-27.5,26.9
2012-04-07 00:49:00,0.0,1.9044,0.0012,403.13,0.25,35.9,32.1,138.13,28.11,24.61,36.32,0.04,-272.74,-272.74,-53,550,-923,22.5,3.8,-22.1,22.5,3.9,-21.7,5.73,2.30,-27.4,27.0
2012-04-07 00:50:00,0.0,1.9048,0.0010,402.96,0.21,41.4,36.0,138.13,28.10,24.61,36.31,0.04,-272.74,-272.74,-51,551,-924,22.5,4.0,-21.7,22.5,4.0,-21.5,5.73,2.46,-27.3,27.1
2012-04-07 00:51:00,0.0,1.9043,0.0011,402.72,0.24,44.9,37.1,138.13,28.11,24.61,36.31,0.04,-272.74,-272.74,-51,552,-925,22.5,4.1,-21.3,22.6,4.3,-20.8,5.73,2.33,-27.2,27.2
2012-04-07 00:52:00,0.0,1.9043,0.0011,402.59,0.23,51.2,34.6,138.13,28.11,24.61,36.32,0.04,-272.74,-272.74,-52,552,-925,22.5,3.9,-22.0,22.6,4.0,-21.6,5.73,2.32,-27.1,27.3
2012-04-07 00:53:00,0.0,1.9043,0.0011,402.33,0.24,59.5,32.1,138.12,28.11,24.61,36.32,0.04,-272.74,-272.73,-51,552,-925,22.5,3.8,-22.2,22.6,3.9,-21.7,5.73,2.46,-27.1,27.3
2012-04-07 00:54:00,0.0,1.9045,0.0011,402.89,0.26,72.6,39.2,138.12,28.12,24.61,36.31,0.04,-272.74,-272.74,-51,552,-925,22.5,3.8,-22.2,22.6,3.9,-21.8,5.73,2.34,-27.0,27.4
2012-04-07 00:55:00,0.0,1.9043,0.0011,402.94,0.24,66.0,34.9,138.12,28.13,24.61,36.32,0.04,-272.74,-272.74,-52,551,-925,22.5,3.8,-22.2,22.6,3.9,-21.8,5.73,2.31,-26.9,27.4
2012-04-07 00:56:00,0.0,1.9042,0.0012,402.22,0.29,85.5,41.1,138.12,28.14,24.61,36.32,0.04,-272.74,-272.73,-51,552,-925,22.5,3.8,-22.2,22.7,3.9,-21.8,5.73,2.45,-26.9,27.5
2012-04-07 00:57:00,0.0,1.9044,0.0011,401.74,0.22,84.1,42.4,138.12,28.15,24.61,36.33,0.04,-272.73,-272.74,-52,552,-925,22.5,3.8,-22.2,22.7,3.9,-21.8,5.73,2.35,-26.8,27.5
2012-04-07 00:58:00,0.0,1.9044,0.0010,402.97,0.34,93.8,40.8,138.12,28.16,24.61,36.33,0.04,-272.74,-272.74,-51,551,-925,22.6,3.8,-22.3,22.7,3.9,-21.8,5.73,2.30,-26.7,27.5
2012-04-07 00:59:00,0.0,1.9048,0.0011,403.18,0.21,88.0,38.8,138.11,28.17,24.61,36.32,0.04,-272.74,-272.74,-51,552,-924,22.6,3.8,-22.3,22.7,3.9,-21.9,5.73,2.44,-26.7,27.5
2012-04-07 01:00:00,0.0,1.9050,0.0010,403.04,0.20,90.9,38.8,138.11,28.18,24.61,36.31,0.04,-272.74,-272.73,-50,553,-923,22.6,3.8,-22.0,22.7,4.0,-21.5,5.73,2.39,-26.6,27.5
2012-04-07 01:01:00,0.0,1.9049,0.0010,402.80,0.19,106.1,40.6,138.11,28.19,24.61,36.32,0.04,-272.74,-272.74,-51,553,-925,22.6,3.9,-21.9,22.8,4.0,-21.5,5.73,2.28,-26.5,27.5
2012-04-07 01:02:00,0.0,1.9048,0.0011,402.67,0.21,101.5,41.8,138.11,28.20,24.61,36.33,0.04,-272.74,-272.74,-51,553,-925,22.7,3.8,-22.0,22.8,3.9,-21.6,5.73,2.41,-26.5,27.6
2012-04-07 01:03:00,0.0,1.9052,0.0010,402.64,0.22,117.7,39.6,138.11,28.21,24.61,36.32,0.04,-272.73,-272.73,-52,552,-925,22.7,3.8,-22.0,22.8,3.9,-21.6,5.73,2.42,-26.4,27.6
2012-04-07 01:04:00,0.0,1.9046,0.0013,402.36,0.22,114.7,41.8,138.11,28.22,24.61,36.33,0.04,-272.73,-272.73,-51,552,-925,22.7,3.8,-21.9,22.8,3.9,-21.5,5.73,2.28,-26.4,27.6
2012-04-07 01:05:00,0.0,1.9056,0.0011,402.57,0.19,119.3,38.1,138.11,28.23,24.61,36.32,0.04,-272.74,-272.74,-52,552,-925,22.7,3.8,-22.0,22.9,3.9,-21.5,5.73,2.38,-26.3,27.6
2012-04-07 01:06:00,0.0,1.9057,0.0011,402.58,0.21,126.9,42.6,138.11,28.24,24.61,36.33,0.04,-272.74,-272.74,-51,553,-925,22.7,3.8,-22.0,22.9,3.9,-21.5,5.73,2.43,-26.2,27.7
2012-04-07 01:07:00,0.0,1.9057,0.0010,402.63,0.22,127.1,42.0,138.11,28.25,24.61,36.32,0.04,-272.73,-272.73,-51,553,-925,22.8,3.8,-22.1,22.9,3.9,-21.6,5.73,2.29,-26.2,27.8
2012-04-07 01:08:00,0.0,1.9051,0.0009,402.31,0.27,134.2,39.5,138.10,28.26,24.61,36.33,0.04,-272.73,-272.74,-52,553,-925,22.8,3.7,-22.1,22.9,3.9,-21.7,5.73,2.34,-26.1,27.8
2012-04-07 01:09:00,0.0,1.9053,0.0010,402.37,0.23,134.4,40.9,138.10,28.28,24.61,36.33,0.04,-272.74,-272.74,-51,553,-925,22.8,3.7,-22.2,23.0,3.8,-21.8,5.73,2.45,-26.1,27.9
2012-04-07 01:10:00,0.0,1.9060,0.0010,402.33,0.24,136.5,38.4,138.10,28.29,24.62,36.34,0.04,-272.73,-272.74,-51,553,-925,22.9,3.6,-22.4,23.0,3.8,-21.9,5.73,2.33,-26.0,28.0
2012-04-07 01:11:00,0.0,1.9063,0.0012,402.52,0.23,142.9,40.4,138.10,28.30,24.61,36.33,0.04,-272.73,-272.74,-52,553,-925,22.9,3.6,-22.5,23.0,3.7,-22.0,5.73,2.31,-26.0,27.9
2012-04-07 01:12:00,0.0,1.9054,0.0010,402.46,0.19,145.6,37.3,138.10,28.31,24.62,36.33,0.04,-272.74,-272.74,-51,554,-925,22.9,3.6,-22.4,23.0,3.7,-22.0,5.73,2.46,-26.0,27.2
2012-04-07 01:13:00,0.0,1.9055,0.0010,402.46,0.27,127.1,33.9,138.11,28.32,24.61,36.33,0.04,-272.73,-272.74,-52,554,-926,22.9,3.6,-22.4,23.0,3.7,-22.0,5.73,2.35,-26.2,26.9
2012-04-07 01:14:00,0.0,1.9050,0.0013,402.48,0.25,113.1,41.9,138.12,28.31,24.62,36.33,0.04,-272.73,-272.74,-52,554,-926,22.9,3.6,-22.6,22.9,3.7,-22.1,5.73,2.29,-26.3,26.5
2012-04-07 01:15:00,0.0,1.9047,0.0010,402.65,0.23,101.3,45.1,138.12,28.31,24.61,36.32,0.04,-272.74,-272.74,-52,554,-926,22.8,3.6,-22.6,22.9,3.7,-22.2,5.73,2.41,-26.5,26.3
2012-04-07 01:16:00,0.0,1.9051,0.0011,402.63,0.24,73.7,33.3,138.13,28.29,24.61,36.33,0.04,-272.74,-272.74,-52,554,-926,22.8,3.6,-22.6,22.8,3.7,-22.3,5.73,2.46,-26.6,26.0
2012-04-07 01:17:00,0.0,1.9046,0.0012,402.71,0.21,73.5,37.8,138.13,28.28,24.62,36.32,0.04,-272.74,-272.74,-52,554,-926,22.7,3.6,-22.5,22.8,3.7,-22.2,5.73,2.40,-26.8,25.8
2012-04-07 01:18:00,0.0,1.9043,0.0013,402.76,0.23,55.4,40.2,138.14,28.26,24.61,36.32,0.04,-272.74,-272.74,-52,554,-926,22.7,3.7,-22.4,22.7,3.8,-22.1,5.73,2.33,-26.9,25.6
2012-04-07 01:19:00,0.0,1.9041,0.0012,402.56,0.24,43.0,34.5,138.14,28.24,24.61,36.32,0.04,-272.74,-272.74,-52,553,-926,22.7,3.8,-22.2,22.7,3.9,-21.8,5.73,2.31,-27.0,25.4
2012-04-07 01:20:00,0.0,1.9042,0.0010,402.74,0.21,39.9,33.9,138.15,28.21,24.61,36.31,0.04,-272.74,-272.74,-52,553,-926,22.6,3.8,-22.0,22.6,3.9,-21.7,5.73,2.34,-27.1,25.3
2012-04-07 01:21:00,0.0,1.9039,0.0011,402.75,0.23,39.7,35.5,138.15,28.19,24.61,36.31,0.04,-272.74,-272.74,-52,553,-926,22.6,3.9,-21.8,22.5,4.0,-21.5,5.73,2.44,-27.1,25.7
2012-04-07 01:22:00,0.0,1.9038,0.0009,402.62,0.24,38.6,31.4,138.15,28.17,24.61,36.31,0.04,-272.74,-272.74,-52,553,-926,22.6,4.0,-21.6,22.5,4.1,-21.3,5.73,2.41,-27.1,26.2
2012-04-07 01:23:00,0.0,1.9041,0.0010,402.55,0.24,43.8,34.7,138.14,28.15,24.61,36.31,0.04,-272.74,-272.74,-52,552,-926,22.5,4.0,-21.6,22.5,4.1,-21.2,5.73,2.33,-27.0,26.5
2012-04-07 01:24:00,0.0,1.9041,0.0010,402.42,0.26,50.4,35.1,138.14,28.14,24.61,36.32,0.04,-272.73,-272.74,-52,552,-925,22.5,4.0,-21.4,22.6,4.2,-21.1,5.73,2.37,-26.9,26.8
2012-04-07 01:25:00,0.0,1.9045,0.0010,402.27,0.20,56.5,35.8,138.13,28.14,24.61,36.31,0.04,-272.74,-272.74,-52,552,-925,22.5,4.1,-21.4,22.6,4.2,-21.1,5.73,2.43,-26.9,26.9
2012-04-07 01:26:00,0.0,1.9043,0.0010,402.32,0.21,55.1,38.1,138.13,28.14,24.61,36.31,0.04,-272.74,-272.73,-51,553,-925,22.5,4.1,-21.4,22.6,4.2,-21.0,5.73,2.28,-26.8,27.1
2012-04-07 01:27:00,0.0,1.9042,0.0010,402.32,0.22,75.8,37.3,138.13,28.14,24.61,36.31,0.04,-272.74,-272.74,-49,552,-925,22.6,4.1,-21.3,22.7,4.2,-20.9,5.73,2.41,-26.7,27.2
2012-04-07 01:28:00,0.0,1.9043,0.0011,402.42,0.20,73.3,36.9,138.13,28.14,24.61,36.32,0.04,-272.73,-272.73,-51,552,-924,22.6,4.1,-21.2,22.7,4.2,-20.9,5.73,2.42,-26.6,27.3
2012-04-07 01:29:00,0.0,1.9044,0.0010,402.32,0.24,79.5,36.5,138.12,28.15,24.61,36.32,0.04,-272.74,-272.74,-52,552,-925,22.6,4.1,-21.3,22.7,4.2,-20.9,5.73,2.29,-26.5,27.3
2012-04-07 01:30:00,0.0,1.9044,0.0011,402.41,0.28,85.3,39.8,138.12,28.16,24.61,36.32,0.04,-272.74,-272.74,-51,552,-925,22.6,4.0,-21.5,22.7,4.1,-21.1,5.73,2.39,-26.4,27.4
2012-04-07 01:31:00,0.0,1.9044,0.0011,402.52,0.23,100.3,46.5,138.12,28.16,24.61,36.32,0.04,-272.74,-272.74,-51,552,-925,22.6,4.0,-21.5,22.7,4.1,-21.1,5.73,2.44,-26.4,27.5
2012-04-07 01:32:00,0.0,1.9040,0.0012,402.51,0.17,102.0,48.1,138.12,28.17,24.61,36.32,0.04,-272.74,-272.74,-52,552,-925,22.6,4.0,-21.5,22.7,4.1,-21.1,5.73,2.30,-26.3,27.5
2012-04-07 01:33:00,0.0,1.9046,0.0010,402.65,0.21,105.3,39.3,138.12,28.18,24.61,36.32,0.04,-272.74,-272.74,-54,552,-922,22.7,4.0,-21.5,22.8,4.1,-21.1,5.73,2.35,-26.2,27.6
2012-04-07 01:34:00,0.0,1.9058,0.0010,402.86,0.23,108.9,38.8,138.11,28.19,24.61,36.32,0.04,-272.74,-272.74,-51,555,-926,22.7,4.0,-21.5,22.8,4.1,-21.1,5.73,2.45,-26.2,27.6
2012-04-07 01:35:00,0.0,1.9054,0.0009,402.92,0.26,120.2,34.3,138.11,28.20,24.61,36.32,0.04,-272.73,-272.74,-51,552,-925,22.7,4.0,-21.5,22.8,4.1,-21.0,5.73,2.33,-26.1,27.7
2012-04-07 01:36:00,0.0,1.9063,0.0010,402.97,0.20,123.7,36.8,138.11,28.22,24.61,36.32,0.04,-272.74,-272.73,-51,553,-925,22.7,3.9,-21.6,22.9,4.1,-21.2,5.73,2.31,-26.0,27.7
2012-04-07 01:37:00,0.0,1.9063,0.0010,403.04,0.19,132.3,35.7,138.11,28.23,24.62,36.32,0.04,-272.73,-272.74,-51,552,-925,22.8,3.8,-21.9,22.9,4.0,-21.4,5.73,2.44,-26.0,27.8
2012-04-07 01:38:00,0.0,1.9067,0.0010,403.02,0.22,141.9,40.8,138.11,28.24,24.61,36.32,0.04,-272.74,-272.74,-51,552,-925,22.8,3.8,-22.1,22.9,3.9,-21.6,5.73,2.37,-25.9,27.8
2012-04-07 01:39:00,0.0,1.9069,0.0011,402.93,0.19,146.3,42.4,138.11,28.26,24.61,36.33,0.04,-272.74,-272.74,-51,553,-925,22.8,3.7,-22.2,22.9,3.8,-21.8,5.73,2.29,-25.9,27.8
2012-04-07 01:40:00,0.0,1.9069,0.0009,402.80,0.24,151.2,32.8,138.10,28.27,24.61,36.33,0.04,-272.74,-272.74,-51,553,-925,22.9,3.7,-22.3,23.0,3.8,-21.9,5.73,2.41,-25.8,27.9
2012-04-07 01:41:00,0.0,1.9076,0.0012,402.96,0.18,136.5,36.4,138.10,28.28,24.61,36.33,0.04,-272.73,-272.74,-51,553,-925,22.9,3.6,-22.4,23.0,3.8,-21.9,5.73,2.42,-25.7,27.9
2012-04-07 01:42:00,0.0,1.9085,0.0011,402.76,0.24,162.7,36.4,138.10,28.29,24.61,36.33,0.04,-272.74,-272.74,-51,553,-925,22.9,3.6,-22.4,23.0,3.8,-22.0,5.73,2.28,-25.7,27.9
2012-04-07 01:43:00,0.0,1.9087,0.0010,402.42,0.20,156.3,35.6,138.10,28.31,24.61,36.34,0.04,-272.74,-272.74,-52,553,-925,22.9,3.6,-22.3,23.1,3.8,-21.9,5.73,2.38,-25.6,28.0
2012-04-07 01:44:00,0.0,1.9094,0.0010,402.38,0.21,166.7,44.6,138.10,28.32,24.61,36.33,0.04,-272.73,-272.74,-51,553,-925,23.0,3.7,-22.1,23.1,3.8,-21.7,5.73,2.44,-25.6,27.9
2012-04-07 01:45:00,0.0,1.9086,0.0010,402.72,0.20,159.7,38.1,138.10,28.33,24.62,36.33,0.04,-272.73,-272.74,-51,554,-925,23.0,3.7,-22.0,23.1,3.9,-21.6,5.73,2.25,-25.5,27.2
2012-04-07 01:46:00,0.0,1.9086,0.0010,402.45,0.29,149.7,41.6,138.11,28.34,24.62,36.33,0.04,-272.74,-272.74,-51,554,-926,23.0,3.8,-21.8,23.1,3.9,-21.4,5.73,2.47,-25.7,26.8
2012-04-07 01:47:00,0.0,1.9078,0.0010,402.59,0.24,144.9,38.6,138.11,28.34,24.61,36.33,0.04,-272.74,-272.73,-51,554,-926,23.0,3.8,-21.7,23.0,4.0,-21.3,5.73,2.38,-25.8,26.4
2012-04-07 01:48:00,0.0,1.9076,0.0010,402.62,0.23,126.0,44.5,138.12,28.33,24.61,36.33,0.04,-272.73,-272.73,-52,554,-926,22.9,3.9,-21.7,23.0,4.0,-21.2,5.73,2.28,-25.9,26.2
2012-04-07 01:49:00,0.0,1.9080,0.0011,402.58,0.23,107.4,32.9,138.12,28.32,24.61,36.33,0.04,-272.74,-272.74,-52,554,-926,22.9,3.9,-21.6,22.9,4.0,-21.3,5.73,2.36,-26.1,26.0
2012-04-07 01:50:00,0.0,1.9078,0.0010,402.68,0.22,98.4,37.7,138.13,28.31,24.62,36.32,0.04,-272.74,-272.74,-52,554,-926,22.9,3.9,-21.7,22.9,4.0,-21.3,5.73,2.45,-26.2,25.9
2012-04-07 01:51:00,0.0,1.9073,0.0009,402.74,0.17,85.0,43.3,138.13,28.29,24.62,36.32,0.04,-272.74,-272.73,-51,554,-926,22.8,3.9,-21.7,22.8,4.0,-21.4,5.73,2.44,-26.3,25.8
2012-04-07 01:52:00,0.0,1.9072,0.0010,402.87,0.22,73.6,49.0,138.14,28.27,24.61,36.31,0.04,-272.74,-272.74,-52,554,-926,22.7,3.9,-21.8,22.8,4.0,-21.4,5.73,2.36,-26.5,25.6
2012-04-07 01:53:00,0.0,1.9068,0.0010,402.48,0.30,68.7,43.8,138.14,28.25,24.61,36.31,0.04,-272.73,-272.74,-52,553,-926,22.7,3.9,-21.9,22.7,4.0,-21.6,5.73,2.31,-26.6,25.5
2012-04-07 01:54:00,0.0,1.9060,0.0010,402.41,0.23,61.3,39.6,138.15,28.22,24.61,36.31,0.04,-272.73,-272.74,-52,553,-926,22.7,3.9,-21.9,22.7,4.0,-21.5,5.73,2.32,-26.7,25.5
2012-04-07 01:55:00,0.0,1.9064,0.0010,402.40,0.20,52.2,35.4,138.15,28.20,24.61,36.31,0.04,-272.73,-272.74,-52,553,-926,22.7,3.9,-21.7,22.6,4.0,-21.4,5.73,2.45,-26.7,26.0
2012-04-07 01:56:00,0.0,1.9067,0.0009,402.56,0.26,53.2,38.0,138.14,28.18,24.61,36.31,0.04,-272.74,-272.74,-52,553,-926,22.7,3.9,-21.6,22.6,4.1,-21.3,5.73,2.35,-26.6,26.4
2012-04-07 01:57:00,0.0,1.9072,0.0010,402.40,0.21,58.0,41.1,138.14,28.17,24.61,36.32,0.04,-272.74,-272.74,-52,553,-926,22.7,3.9,-21.6,22.7,4.1,-21.2,5.73,2.41,-26.5,26.7
2012-04-07 01:58:00,0.0,1.9070,0.0010,402.45,0.19,75.9,38.5,138.13,28.17,24.61,36.31,0.04,-272.73,-272.74,-52,553,-926,22.7,3.9,-21.6,22.7,4.1,-21.2,5.73,2.29,-26.4,26.9
2012-04-07 01:59:00,0.0,1.9069,0.0009,402.44,0.20,80.7,42.3,138.13,28.16,24.61,36.32,0.04,-272.74,-272.74,-52,553,-925,22.7,3.9,-21.6,22.7,4.1,-21.2,5.73,2.46,-26.3,27.0
2012-04-07 02:00:00,0.0,1.9068,0.0010,402.46,0.21,93.1,43.0,138.13,28.17,24.61,36.32,0.04,-272.74,-272.74,-51,553,-926,22.7,3.9,-21.6,22.7,4.1,-21.3,5.73,2.34,-26.2,27.2
2012-04-07 02:01:00,0.0,1.9072,0.0011,402.37,0.18,92.0,40.3,138.12,28.17,24.61,36.32,0.04,-272.74,-272.73,-52,554,-925,22.7,4.0,-21.5,22.8,4.1,-21.1,5.73,2.31,-26.2,27.3
2012-04-07 02:02:00,0.0,1.9071,0.0013,402.34,0.19,110.0,39.3,138.12,28.18,24.61,36.32,0.04,-272.74,-272.74,-50,552,-926,22.7,4.0,-21.4,22.8,4.2,-20.9,5.73,2.45,-26.1,27.4
2012-04-07 02:03:00,0.0,1.9075,0.0009,402.42,0.21,108.3,38.7,138.12,28.19,24.61,36.33,0.04,-272.74,-272.74,-52,550,-926,22.7,4.1,-21.2,22.8,4.2,-20.9,5.73,2.37,-26.0,27.5
2012-04-07 02:04:00,0.0,1.9075,0.0011,402.71,0.23,122.0,41.8,138.12,28.20,24.61,36.32,0.04,-272.73,-272.74,-52,550,-925,22.7,4.1,-21.1,22.8,4.2,-20.7,5.73,2.29,-25.9,27.5
2012-04-07 02:05:00,0.0,1.9077,0.0010,402.37,0.24,122.5,43.5,138.11,28.21,24.61,36.33,0.04,-272.74,-272.73,-51,552,-925,22.8,4.1,-21.0,22.9,4.3,-20.6,5.73,2.42,-25.9,27.6
2012-04-07 02:06:00,0.0,1.9078,0.0013,402.36,0.24,130.9,34.4,138.11,28.22,24.62,36.32,0.04,-272.73,-272.74,-51,553,-925,22.8,4.0,-21.3,22.9,4.2,-20.9,5.73,2.42,-25.8,27.6
2012-04-07 02:07:00,0.0,1.9085,0.0011,402.52,0.28,146.5,43.2,138.11,28.23,24.62,36.33,0.04,-272.74,-272.74,-52,552,-925,22.8,3.9,-21.5,22.9,4.1,-21.1,5.73,2.29,-25.7,27.7
2012-04-07 02:08:00,0.0,1.9088,0.0010,402.34,0.21,142.4,31.4,138.11,28.24,24.61,36.33,0.04,-272.73,-272.74,-51,553,-925,22.8,3.9,-21.7,22.9,4.0,-21.2,5.73,2.37,-25.7,27.7
2012-04-07 02:09:00,0.0,1.9089,0.0010,402.59,0.23,150.1,35.8,138.11,28.26,24.62,36.32,0.04,-272.74,-272.74,-51,553,-925,22.9,3.8,-21.8,22.9,4.0,-21.4,5.73,2.44,-25.6,27.8
2012-04-07 02:10:00,0.0,1.9097,0.0011,403.89,1.01,155.0,40.7,138.11,28.27,24.61,36.33,0.04,-272.74,-272.74,-51,553,-925,22.9,3.8,-21.9,23.0,4.0,-21.4,5.73,2.32,-25.6,27.8
2012-04-07 02:11:00,0.0,1.9098,0.0010,404.63,0.64,165.9,40.3,138.10,28.28,24.61,36.33,0.04,-272.74,-272.73,-51,553,-925,22.9,3.9,-21.7,23.0,4.0,-21.4,5.73,2.31,-25.5,27.9
2012-04-07 02:12:00,0.0,1.9097,0.0011,403.03,0.38,170.9,39.6,138.10,28.30,24.61,36.33,0.04,-272.73,-272.74,-51,553,-925,22.9,3.9,-21.5,23.0,4.0,-21.1,5.73,2.44,-25.4,28.0
2012-04-07 02:13:00,0.0,1.9102,0.0010,403.97,0.58,160.6,37.1,138.10,28.31,24.61,36.33,0.04,-272.74,-272.74,-51,553,-925,23.0,3.9,-21.5,23.1,4.0,-21.1,5.73,2.39,-25.4,28.0
2012-04-07 02:14:00,0.0,1.9103,0.0012,403.95,0.28,171.7,31.8,138.10,28.32,24.62,36.33,0.04,-272.74,-272.73,-51,553,-926,23.0,3.9,-21.4,23.1,4.1,-21.0,5.73,2.28,-25.3,28.0
2012-04-07 02:15:00,0.0,1.9103,0.0010,405.37,0.40,185.0,39.8,138.10,28.34,24.62,36.33,0.04,-272.74,-272.74,-51,554,-925,23.0,4.0,-21.3,23.1,4.1,-20.9,5.73,2.40,-25.2,28.1
2012-04-07 02:16:00,0.0,1.9102,0.0010,406.10,0.44,181.5,36.3,138.10,28.35,24.62,36.33,0.04,-272.73,-272.74,-51,554,-926,23.1,4.0,-21.3,23.1,4.1,-20.8,5.73,2.40,-25.2,27.5
2012-04-07 02:17:00,0.0,1.9097,0.0011,405.30,0.88,175.3,34.0,138.10,28.36,24.62,36.33,0.04,-272.73,-272.74,-51,554,-926,23.1,4.0,-21.2,23.1,4.2,-20.7,5.73,2.36,-25.3,27.0